RH
17 17 16 14 13 15 16 15 16 19 20 22 24 26 26 27 28 27 22 23 31 35 38 39 37 35 39 42 44 45 45 44 44 49 53 55 53 53 54 54 55 56 52
15 15 16 16 17 17 17 15 16 17 20 23 23 25 27 28 29 29 24 20 22 29 34 37 37 35 35 39 42 44 45 46 45 41 41 45 50 54 56 56 56 59 58
18 18 17 19 18 17 17 17 16 16 17 20 25 24 23 22 22 21 22 21 19 19 25 30 35 37 34 35 38 41 42 43 42 42 40 41 45 49 53 61 65 64 61
29 28 28 26 23 22 23 21 22 19 19 19 21 23 26 26 25 25 23 21 23 20 19 22 26 32 35 34 33 34 37 40 41 41 43 44 45 48 52 55 62 67 66
36 36 36 35 33 30 30 29 27 25 25 27 26 25 26 27 26 25 24 22 19 20 21 17 19 23 27 31 33 33 33 35 37 40 42 44 48 48 48 51 55 64 67
38 41 41 41 43 41 36 35 34 32 27 28 30 31 27 28 31 28 23 21 19 19 19 19 17 17 20 24 27 30 33 33 32 35 37 39 41 46 50 54 57 59 65
38 40 40 42 44 46 46 42 36 37 35 33 31 33 34 30 32 35 35 32 29 27 26 23 22 21 19 21 23 26 29 33 34 35 34 35 38 43 48 52 57 58 62
40 41 41 40 39 39 41 40 43 42 39 38 37 35 35 33 31 34 38 41 42 41 39 36 34 32 30 33 30 29 29 30 32 39 38 38 40 44 51 56 60 64 66
39 37 38 39 39 40 36 37 41 43 47 44 42 38 38 38 35 38 46 47 47 47 50 51 51 48 44 43 43 41 41 29 26 30 31 35 39 43 47 53 59 64 65
39 37 37 38 38 36 34 37 38 39 40 43 44 43 39 40 46 49 48 51 50 52 59 56 53 54 58 56 55 51 47 46 45 39 40 40 38 40 47 51 56 60 65
33 33 32 32 32 31 34 38 40 38 38 38 38 41 40 41 46 48 50 51 49 51 50 49 52 55 61 61 65 63 53 60 60 56 53 54 54 55 54 57 61 60 69
32 35 32 31 31 30 29 31 34 37 38 37 37 37 34 37 42 47 47 48 50 53 49 50 54 58 58 59 60 59 62 66 68 68 68 66 70 70 72 68 62 67 72
22 25 26 25 23 23 23 23 27 30 31 33 33 35 37 38 41 41 44 47 53 52 49 49 52 58 61 59 58 58 64 68 70 70 64 68 72 76 89 91 85 81 92
18 18 16 15 15 17 19 20 21 24 26 29 34 37 43 43 43 44 48 47 46 48 52 53 54 55 60 62 62 61 61 68 69 69 75 77 80 72 73 84 91 93 93
16 15 15 13 15 19 22 22 23 25 29 32 37 41 44 44 46 47 50 50 51 52 54 54 55 55 56 55 52 53 57 61 67 71 78 75 76 80 80 83 97 98 99
24 23 20 19 20 22 23 24 26 29 34 37 40 44 47 46 48 50 53 53 55 55 51 49 47 46 48 48 49 53 51 54 65 68 72 78 81 88 74 69 79 98 95
31 31 29 27 27 26 27 29 32 32 36 43 43 44 47 49 51 54 52 52 48 46 45 43 41 43 44 46 52 53 54 58 65 69 70 70 69 77 80 85 98 99 99
36 36 36 35 35 35 36 35 34 35 38 42 44 47 49 46 45 41 40 39 38 37 35 36 39 42 44 46 50 51 51 51 58 62 67 69 74 83 83 99 97 96 97
39 39 39 39 40 38 40 41 40 41 41 43 46 46 44 41 37 33 30 29 30 32 36 41 41 42 44 48 48 48 51 56 63 68 75 80 81 85 86 93 91 97 96
40 40 43 45 47 48 48 50 51 51 50 47 46 43 39 33 31 31 32 33 35 37 39 40 40 42 45 47 46 46 50 56 65 74 84 88 89 86 85 85 90 95 96
36 43 45 48 51 50 51 53 52 53 53 50 43 38 36 35 35 35 36 37 41 42 42 41 39 40 42 46 48 53 57 65 70 76 82 90 93 92 88 90 98 95 94
43 45 48 48 47 49 48 46 46 48 45 43 42 41 42 43 42 43 46 47 46 47 48 48 46 44 47 52 54 58 62 64 71 76 81 85 84 84 84 84 86 87 82
54 52 54 51 48 48 49 50 49 48 47 46 48 50 50 51 53 54 55 56 55 54 53 52 51 51 56 57 61 63 66 68 74 75 80 80 84 85 84 79 73 66 65
59 64 59 57 54 52 53 55 56 56 55 56 57 58 59 60 59 58 59 59 60 59 58 58 57 60 60 62 66 67 68 72 72 74 74 68 62 63 63 65 67 64 65
71 69 77 70 66 60 59 60 58 62 64 64 64 65 64 64 65 65 66 66 64 64 64 64 66 63 66 66 71 69 65 71 74 73 73 69 64 70 67 68 65 65 61
86 87 90 94 87 78 74 73 70 68 70 71 72 71 71 70 71 70 70 71 73 72 67 63 60 61 66 72 77 75 74 74 77 76 76 76 73 70 69 70 69 68 62